Location: Elaine Barite Prospect
(34.1431°N, 106.7922°W)
Time: 06:11:11
(UTC+00:00)

Cosmos 773 Rocket - Pass Details

Date: 13 December 2025
Orbit: 740 x 773 km, 74.1° (Epoch: 12 January)

Event Time Altitude Azimuth Distance (km) Brightness Sun altitude
Rises 13:30:39 0° 199° (SSW) 3,159 7.3 -7.2°
Reaches altitude 10° 13:32:59 10° 200° (SSW) 2,240 6.5 -6.7°
Maximum altitude 13:38:03 79° 287° (WNW) 760 3.9 -5.7°
Drops below altitude 10° 13:43:11 10° 14° (NNE) 2,264 6.3 -4.8°
Sets 13:45:34 0° 16° (NNE) 3,195 7.1 -4.3°
